Terminal Aerodrome Forecast
Issued by NWS

Current Version | Previous Version | Text Only | Print | Product List | Glossary On
Versions: 1 2 3 4 5 6 7 8 9 10 11 12
000
FTUS45 KRIW 281700
TAFLND
TAF
KLND 281732Z 2818/2918 VRB05KT P6SM VCSH SCT030 BKN050
     FM290000 VRB05KT P6SM SCT035 BKN060
     FM290800 VRB05KT P6SM VCFG FEW005 SCT030=

USA.gov is the U.S. government's official web portal to all federal, state and local government web resources and services.